Lid_Strength_Index
13 13 13 13 13 13 14 14 14 14 13 14 14 14 15 15 15 15 15 15 15 15 15 15 14 14 15 15 15 15 15 14
13 13 13 13 13 13 12 13 14 14 14 14 13 13 14 14 15 15 15 15 15 15 15 16 15 14 15 15 15 15 15 15
12 13 13 13 13 14 13 13 13 13 13 13 13 14 14 15 15 15 15 15 15 15 16 16 16 15 15 15 14 15 15 14
12 11 12 12 12 12 12 12 12 14 14 14 14 15 15 15 15 15 16 16 16 16 16 16 16 16 15 15 14 13 13 12
12 12 12 12 13 13 13 12 12 13 14 15 15 15 15 14 14 15 15 16 15 15 15 15 16 15 15 15 15 15 14 13
13 13 12 12 12 12 12 12 12 12 13 13 13 13 13 13 13 13 14 14 14 15 15 15 15 15 15 14 14 14 14 13
12 12 12 11 11 11 11 11 11 11 12 11 11 11 11 11 11 12 12 13 13 14 15 16 14 12 11 11 12 12 13 13
11 11 11 11 10 10 10 10 12 13 12 12 11 11 11 11 11 12 12 13 14 14 14 14 14 12 12 11 12 13 12 13
10 10 9 9 9 10 10 11 11 12 13 12 12 12 12 12 13 13 13 13 13 13 14 14 14 12 11 12 13 13 13 13
9 9 9 10 10 11 11 11 11 12 12 13 14 15 15 16 15 15 15 15 15 14 14 15 15 12 12 12 14 15 15 14
9 9 10 11 11 12 13 14 14 13 14 14 15 17 18 18 18 18 18 18 17 17 17 17 17 14 13 13 15 16 16 15
10 11 11 12 13 14 14 15 15 15 16 17 17 19 20 20 20 20 21 20 21 21 20 19 19 18 15 14 16 16 16 16
11 12 12 13 14 15 16 15 17 18 19 19 21 20 20 22 22 22 22 23 23 22 22 20 19 17 16 15 14 14 17 17
14 14 14 16 16 18 17 17 18 22 22 22 21 21 21 22 22 23 23 23 23 22 22 22 20 19 16 16 16 15 17 17
16 18 18 18 16 19 19 18 25 26 22 21 21 21 21 21 22 23 23 24 23 23 22 21 20 18 17 18 19 17 17 17
17 18 18 18 19 21 19 22 23 22 21 20 21 22 22 22 23 23 22 21 21 20 18 18 18 16 13 13 14 14 14 16
17 19 20 22 21 21 23 25 24 21 20 21 21 22 21 23 23 19 18 17 15 14 15 16 13 12 12 11 11 10 11 14
18 19 21 23 22 23 24 26 25 22 21 21 21 22 22 23 23 25 21 17 16 15 14 14 13 12 11 10 10 10 10 14
20 22 24 24 24 22 25 26 24 23 21 22 22 22 22 22 22 22 23 24 22 18 16 14 14 13 12 10 10 13 13 14
23 24 24 26 24 23 24 24 23 22 22 22 22 22 22 22 22 22 22 22 22 21 19 18 16 14 14 14 16 17 16 15